• In Deutschland
  • Länderverzeichnis
  • Für 7 Tage
  • Wassertemperatur
  • Satellitenkarten
  • Wetterkarte
  • Widgets
  • user-avatar
    Anmelden

    Stündliche Wetter Qala i Naw

    Heute, 19 Februar, Montag

    Zeit Temperatur Niederschläge Wind Luftdruck Luftfeuchtigkeit
    00:00 +13°C° 0 mm 1 m/S 678 mmHg 50%
    01:00 +14°C° 0 mm 1 m/S 678 mmHg 49%
    02:00 +14°C° 0 mm 1 m/S 678 mmHg 49%
    03:00 +14°C° 0 mm 2 m/S 677 mmHg 48%
    04:00 +14°C° 0 mm 2 m/S 677 mmHg 47%
    05:00 +14°C° 0 mm 2 m/S 677 mmHg 46%
    06:00 +13°C° 0 mm 3 m/S 677 mmHg 44%
    07:00 +14°C° 0 mm 3 m/S 677 mmHg 43%
    08:00 +17°C° 0 mm 3 m/S 678 mmHg 38%
    09:00 +19°C° 0 mm 3 m/S 678 mmHg 33%
    10:00 +21°C° 0 mm 3 m/S 678 mmHg 28%
    11:00 +23°C° 0 mm 4 m/S 678 mmHg 25%
    12:00 +25°C° 0 mm 4 m/S 678 mmHg 22%
    13:00 +27°C° 0 mm 5 m/S 677 mmHg 19%
    14:00 +27°C° 0 mm 5 m/S 677 mmHg 20%
    15:00 +26°C° 0 mm 4 m/S 677 mmHg 22%
    16:00 +26°C° 0 mm 4 m/S 677 mmHg 23%
    17:00 +23°C° 0 mm 4 m/S 677 mmHg 28%
    18:00 +20°C° 0 mm 4 m/S 677 mmHg 34%
    19:00 +18°C° 0 mm 4 m/S 677 mmHg 39%
    20:00 +15°C° 0 mm 4 m/S 677 mmHg 44%
    21:00 +13°C° 0 mm 4 m/S 677 mmHg 49%
    22:00 +10°C° 0 mm 5 m/S 676 mmHg 53%
    23:00 +10°C° 0,2 mm 4 m/S 676 mmHg 57%

    Morgen, 20 Februar, Dienstag

    Zeit Temperatur Niederschläge Wind Luftdruck Luftfeuchtigkeit
    00:00 +8°C° 0,2 mm 4 m/S 676 mmHg 60%
    01:00 +8°C° 0,2 mm 3 m/S 676 mmHg 64%
    02:00 +8°C° 0,1 mm 3 m/S 676 mmHg 67%
    03:00 +7°C° 0,1 mm 3 m/S 676 mmHg 70%
    04:00 +7°C° 0,1 mm 3 m/S 676 mmHg 72%
    05:00 +7°C° 0,2 mm 3 m/S 676 mmHg 75%
    06:00 +5°C° 0,2 mm 3 m/S 677 mmHg 77%
    07:00 +6°C° 0,2 mm 2 m/S 677 mmHg 80%
    08:00 +7°C° 0,1 mm 3 m/S 678 mmHg 79%
    09:00 +7°C° 0,1 mm 3 m/S 678 mmHg 78%
    10:00 +8°C° 0,1 mm 3 m/S 679 mmHg 77%
    11:00 +8°C° 0,1 mm 3 m/S 679 mmHg 77%
    12:00 +8°C° 0,1 mm 3 m/S 679 mmHg 78%
    13:00 +8°C° 0,1 mm 3 m/S 679 mmHg 78%
    14:00 +8°C° 0 mm 3 m/S 680 mmHg 76%
    15:00 +8°C° 0 mm 3 m/S 680 mmHg 75%
    16:00 +8°C° 0 mm 3 m/S 680 mmHg 73%
    17:00 +8°C° 0 mm 2 m/S 680 mmHg 75%
    18:00 +7°C° 0 mm 2 m/S 681 mmHg 77%
    19:00 +7°C° 0 mm 2 m/S 681 mmHg 79%
    20:00 +6°C° 0 mm 2 m/S 681 mmHg 80%
    21:00 +7°C° 0 mm 1 m/S 681 mmHg 80%
    22:00 +7°C° 0 mm 1 m/S 681 mmHg 80%
    23:00 +7°C° 0 mm 1 m/S 681 mmHg 80%

    übermorgen, 21 Februar, Mittwoch

    Zeit Temperatur Niederschläge Wind Luftdruck Luftfeuchtigkeit
    00:00 +6°C° 0 mm 1 m/S 681 mmHg 80%
    01:00 +6°C° 0 mm 1 m/S 681 mmHg 80%
    02:00 +6°C° 0 mm 1 m/S 681 mmHg 79%
    03:00 +6°C° 0 mm 1 m/S 681 mmHg 79%
    04:00 +5°C° 0 mm 1 m/S 681 mmHg 78%
    05:00 +6°C° 0 mm 1 m/S 681 mmHg 77%
    06:00 +6°C° 0 mm 1 m/S 681 mmHg 76%
    07:00 +5°C° 0 mm 0 m/S 682 mmHg 75%
    08:00 +8°C° 0 mm 1 m/S 682 mmHg 65%
    09:00 +10°C° 0 mm 1 m/S 682 mmHg 56%
    10:00 +12°C° 0 mm 1 m/S 683 mmHg 47%
    11:00 +13°C° 0 mm 2 m/S 683 mmHg 43%
    12:00 +14°C° 0 mm 2 m/S 682 mmHg 40%
    13:00 +15°C° 0 mm 2 m/S 682 mmHg 37%
    14:00 +14°C° 0 mm 3 m/S 682 mmHg 38%
    15:00 +14°C° 0 mm 3 m/S 681 mmHg 39%
    16:00 +14°C° 0 mm 3 m/S 681 mmHg 40%
    17:00 +14°C° 0 mm 2 m/S 681 mmHg 45%
    18:00 +13°C° 0 mm 2 m/S 681 mmHg 51%
    19:00 +12°C° 0 mm 1 m/S 681 mmHg 56%
    20:00 +11°C° 0 mm 1 m/S 681 mmHg 55%
    21:00 +11°C° 0 mm 1 m/S 681 mmHg 55%
    22:00 +11°C° 0 mm 1 m/S 681 mmHg 54%
    23:00 +11°C° 0 mm 1 m/S 681 mmHg 54%

    22 Februar, Donnerstag

    Zeit Temperatur Niederschläge Wind Luftdruck Luftfeuchtigkeit
    00:00 +11°C° 0 mm 1 m/S 680 mmHg 53%
    01:00 +9°C° 0 mm 0 m/S 680 mmHg 53%
    02:00 +9°C° 0 mm 0 m/S 679 mmHg 54%
    03:00 +9°C° 0 mm 1 m/S 679 mmHg 55%
    04:00 +9°C° 0 mm 1 m/S 679 mmHg 55%
    05:00 +9°C° 0 mm 1 m/S 679 mmHg 54%
    06:00 +9°C° 0 mm 1 m/S 679 mmHg 53%
    07:00 +9°C° 0 mm 1 m/S 679 mmHg 51%
    08:00 +11°C° 0 mm 1 m/S 680 mmHg 44%
    09:00 +14°C° 0 mm 1 m/S 680 mmHg 36%
    10:00 +16°C° 0 mm 1 m/S 680 mmHg 29%
    11:00 +17°C° 0 mm 2 m/S 680 mmHg 27%
    12:00 +18°C° 0 mm 2 m/S 680 mmHg 25%
    13:00 +19°C° 0 mm 3 m/S 679 mmHg 24%
    14:00 +19°C° 0 mm 3 m/S 679 mmHg 27%
    15:00 +18°C° 0 mm 3 m/S 679 mmHg 30%
    16:00 +17°C° 0 mm 4 m/S 679 mmHg 33%
    17:00 +16°C° 0 mm 3 m/S 679 mmHg 39%
    18:00 +15°C° 0 mm 2 m/S 679 mmHg 45%
    19:00 +14°C° 0 mm 2 m/S 680 mmHg 50%
    20:00 +14°C° 0 mm 1 m/S 680 mmHg 53%
    21:00 +13°C° 0 mm 1 m/S 679 mmHg 55%
    22:00 +13°C° 0 mm 1 m/S 679 mmHg 57%
    23:00 +12°C° 0 mm 1 m/S 679 mmHg 58%

    23 Februar, Freitag

    Zeit Temperatur Niederschläge Wind Luftdruck Luftfeuchtigkeit
    00:00 +12°C° 0 mm 1 m/S 679 mmHg 59%
    01:00 +11°C° 0 mm 1 m/S 679 mmHg 60%
    02:00 +11°C° 0 mm 1 m/S 679 mmHg 62%
    03:00 +10°C° 0 mm 1 m/S 679 mmHg 65%
    04:00 +9°C° 0 mm 1 m/S 678 mmHg 67%
    05:00 +9°C° 0 mm 1 m/S 679 mmHg 68%
    06:00 +9°C° 0 mm 1 m/S 679 mmHg 68%
    07:00 +9°C° 0 mm 1 m/S 679 mmHg 68%
    08:00 +11°C° 0 mm 1 m/S 680 mmHg 61%
    09:00 +13°C° 0 mm 2 m/S 680 mmHg 53%
    10:00 +14°C° 0 mm 2 m/S 680 mmHg 46%
    11:00 +15°C° 0 mm 2 m/S 680 mmHg 43%
    12:00 +16°C° 0 mm 3 m/S 680 mmHg 40%
    13:00 +17°C° 0 mm 3 m/S 679 mmHg 37%
    14:00 +17°C° 0 mm 3 m/S 679 mmHg 38%
    15:00 +17°C° 0 mm 3 m/S 679 mmHg 40%
    16:00 +17°C° 0 mm 3 m/S 679 mmHg 41%
    17:00 +16°C° 0 mm 3 m/S 679 mmHg 46%
    18:00 +15°C° 0 mm 2 m/S 679 mmHg 51%
    19:00 +14°C° 0 mm 1 m/S 679 mmHg 57%
    20:00 +14°C° 0 mm 1 m/S 679 mmHg 58%
    21:00 +14°C° 0 mm 1 m/S 679 mmHg 59%
    22:00 +13°C° 0 mm 1 m/S 679 mmHg 61%
    23:00 +13°C° 0,1 mm 1 m/S 679 mmHg 62%

    24 Februar, Samstag

    Zeit Temperatur Niederschläge Wind Luftdruck Luftfeuchtigkeit
    00:00 +13°C° 0,1 mm 1 m/S 679 mmHg 63%
    01:00 +12°C° 0,1 mm 1 m/S 679 mmHg 64%
    02:00 +12°C° 0,1 mm 1 m/S 679 mmHg 65%
    03:00 +12°C° 0,1 mm 1 m/S 679 mmHg 66%
    04:00 +12°C° 0,1 mm 1 m/S 679 mmHg 67%
    05:00 +11°C° 0 mm 1 m/S 679 mmHg 68%
    06:00 +11°C° 0 mm 1 m/S 679 mmHg 70%
    07:00 +10°C° 0 mm 1 m/S 679 mmHg 71%
    08:00 +12°C° 0 mm 2 m/S 680 mmHg 65%
    09:00 +13°C° 0 mm 2 m/S 680 mmHg 58%
    10:00 +15°C° 0 mm 2 m/S 681 mmHg 51%
    11:00 +16°C° 0 mm 3 m/S 680 mmHg 47%
    12:00 +17°C° 0 mm 3 m/S 680 mmHg 43%
    13:00 +18°C° 0 mm 4 m/S 680 mmHg 40%
    14:00 +18°C° 0 mm 4 m/S 680 mmHg 40%
    15:00 +18°C° 0 mm 4 m/S 680 mmHg 41%
    16:00 +18°C° 0 mm 4 m/S 680 mmHg 42%
    17:00 +17°C° 0,1 mm 3 m/S 680 mmHg 47%
    18:00 +16°C° 0,1 mm 3 m/S 680 mmHg 52%
    19:00 +15°C° 0,1 mm 2 m/S 680 mmHg 58%
    20:00 +15°C° 0,1 mm 2 m/S 680 mmHg 60%
    21:00 +14°C° 0,1 mm 2 m/S 680 mmHg 62%
    22:00 +14°C° 0,1 mm 1 m/S 680 mmHg 65%
    23:00 +14°C° 0 mm 2 m/S 680 mmHg 64%
    Mehr zeigen